sat.trackr.live / text

‹ back to catalog

STARLINK-34381

NORAD 64282 · 2025-120AC

PAYLOAD ACTIVE UNKNOWN

§ Identity

Operator
Country
US
Launch date
2025-06-04
Launch site
AFWTR
Launch vehicle
Mass (kg)
RCS (m²)

Purposes: comms

External: N2YO · Heavens-Above · Gunter

§ Orbital elements

Epoch: 2026-09-20T08:15:56.089152Z

Period
93.85 min
Inclination
53.1607°
Eccentricity
0.0001544
Mean motion
15.34403944 rev/d
Perigee alt
461.6 km
Apogee alt
463.7 km
Semi-major
6,840.8 km
B*
4.0555e-4
RAAN
290.7708°
Arg perigee
74.6240°
Mean anomaly
285.4933°
Rev number
7,372

§ Raw data

STARLINK-343811 64282U 25120AC  26263.34439918  .00013352  00000+0  40555-3 0  99972 64282  53.1607 290.7708 0001544  74.6240 285.4933 15.34403944 73726

JSON: /api/v1/satellites/64282 · /tle

For live sub-satellite position, see the globe view (requires WebGL).

§ Visibility from observer

Set your observer location to see the next 7 days of passes ≥ 10°. The values pass through the URL so the page stays shareable.

No JS? Fill the form by hand. The geolocation button needs JavaScript.